星链-5401 (STARLINK-5401 )

导读

STARLINK-5401是美国太空探索技术公司于2022年12月28日发射的星链卫星,归属美国SpaceX星链互联网星座项目。它作为星链组网卫星之一,主要为全球偏远地区、移动载具等提供低延迟高速卫星互联网服务,进一步推进了星链星座全球覆盖的建设进程,也加剧了近地轨道空间资源竞争与太空环保争议。

Basic Information
目录编号:
54870
目录名称:
STARLINK-5401
国际标识:
2022-177BC
轨道中心:
EARTH
卫星名称:
星链-5401
卫星全名:
星链-5401 (STARLINK-5401 )
卫星状态:
在轨 (已飞行1346 天)
发射日期:
2022-12-28 UTC
国别 :
美国 (US)
星等 :
--
Orbit Information
数据来源 国际轨道数据 AOE轨道数据
星历时间 2026-09-03T14:32:15+0800
1天前
查看轨道信息
2026-09-03T23:00:00+0800
16小时前
查看轨道信息
半长轴 6861.19km 6861.254km
偏心率 0.0001192 0.000016
轨道倾角 43.002° 43.001°
近地点辐角 271.591° 341.322°
升交点赤经 198.341° 196.350°
平近点角 88.480° 160.052°
近地点 482.235km 483.007km
远地点 483.871km 483.227km
周期 94.267分钟 94.268分钟
每日圈数 15.275787 15.275576
Detailed Information
固有亮度:
5
最大亮度:
2.5
卫星平台:
Starlink v1.5
覆盖范围:
全球
运营商:
太空探索技术公司
运营商所在国:
美国
制造商(研发单位):
太空探索技术公司
制造商所在国:
美国
使用方式:
暂无
Satellite Introduction
星链(Starlink)计划是由太空探索技术公司(SpaceX)提出的一个巨型低轨卫星互联网星座项目,计划在2019年至2024年间在太空搭建由约1.2万颗卫星组成的“星链”网络,其中1584颗将部署在地球上空550千米处的近地轨道,并从2020年开始工作。该卫星仍在工作。
2D Orbit Map
3D Orbit Map
Orbit Altitude Analysis Chart
Orbit Inclination Analysis Chart
Orbit Comprehensive Analysis Chart
View Comprehensive Chart
Conjunction Data List
Event ID Objects TCA Miss Dist (km) Collision Risk Probability Collision Risk Index (CRI) Action
CDM_260904-112405-301705-487021
2026-09-04T
11:24:21+0000
0.517 km
远距离
1.530208E-4 高风险 0.79
CDM_260904-212405-487006-213521
2026-09-04T
21:24:03+0000
0.914 km
远距离
7.790093E-6 低风险 0.53
CDM_260904-221105-487006-213521
2026-09-04T
22:11:08+0000
1.318 km
极远距离
2.302023E-6 低风险 0.42
CDM_260904-015305-487006-268523
2026-09-04T
01:53:06+0000
2.234 km
极远距离
2.069863E-6 低风险 0.41
CDM_260904-044905-487005-864822
2026-09-04T
04:49:29+0000
2.339 km
极远距离
1.599079E-6 低风险 0.39
CDM_260901-042705-487006-657522
2026-09-01T
04:27:08+0000
2.464 km
极远距离
1.393746E-6 低风险 0.38
CDM_260901-060105-487006-657522
2026-09-01T
06:01:17+0000
2.605 km
极远距离
1.268459E-6 低风险 0.37
CDM_260903-213905-316805-487021
2026-09-03T
21:39:25+0000
2.685 km
极远距离
1.206456E-6 低风险 0.37
CDM_260904-203605-487006-213521
2026-09-04T
20:36:58+0000
1.980 km
极远距离
7.636748E-7 极低风险 0.33